Theta_e
343 346 347 343 345 342 349 349 346 348 346 347 347 349 349 348 350 350 346 345 344 343 332 332 331 330 329 329 330 330 329 329 329 328 328 328 328 328 327 327 327 327 327 327 327 327 327 325 324
341 348 347 340 344 343 346 345 345 346 346 348 348 348 347 348 346 345 345 346 344 342 334 333 332 332 332 331 329 327 325 324 323 323 322 322 321 321 320 320 320 320 320 320 320 320 320 321 324
345 345 344 340 342 343 346 346 344 342 347 349 347 347 347 345 345 345 344 345 343 337 334 333 332 332 330 327 325 324 324 322 319 316 315 315 314 314 314 314 314 314 314 314 314 314 314 314 315
342 342 343 342 343 343 345 344 343 343 343 345 343 345 346 345 343 343 344 345 343 339 333 333 334 332 328 326 325 322 318 316 315 316 316 315 314 313 312 312 311 311 310 310 310 310 311 313 313
339 339 346 349 345 343 341 344 344 339 346 347 348 346 345 345 343 343 344 345 343 342 338 337 333 330 327 326 323 318 318 319 320 320 318 317 315 314 315 313 317 317 316 315 313 311 310 310 310
346 343 350 348 347 344 342 341 341 345 347 345 343 345 345 345 345 343 344 344 342 342 342 336 333 330 326 324 319 319 322 322 321 321 320 318 318 320 321 321 321 319 316 314 313 312 311 310 310
346 345 349 347 345 343 342 341 336 340 345 344 340 346 346 345 344 343 343 342 341 341 339 336 334 329 326 320 320 322 323 323 323 322 321 321 323 323 322 323 323 322 320 316 315 314 311 310 312
345 343 342 342 341 339 337 340 337 338 338 345 346 346 345 344 343 342 342 343 341 340 339 335 333 328 324 321 322 323 324 325 326 325 323 324 324 324 324 324 324 323 322 322 322 319 316 313 321
342 341 342 340 340 337 336 335 339 338 340 342 344 341 342 337 342 342 342 342 341 339 339 337 330 326 321 326 328 326 326 328 327 326 325 325 326 325 325 326 326 324 323 323 323 322 321 322 321
340 338 339 339 338 337 335 336 337 336 338 341 340 342 335 335 343 342 342 342 342 340 339 339 330 323 322 331 330 329 328 329 328 327 327 326 326 327 327 326 327 325 324 323 323 322 322 322 322
337 337 337 339 338 339 338 337 338 336 336 340 340 340 334 337 344 342 341 341 340 339 341 340 333 329 329 332 330 329 328 329 329 328 328 327 327 328 327 327 326 325 325 324 324 323 323 322 322
340 340 340 340 339 338 337 338 340 339 339 338 338 340 337 340 344 342 342 342 341 341 341 341 336 333 333 331 330 328 329 329 329 329 328 328 327 326 326 325 325 324 326 324 326 326 323 322 322
341 340 339 339 340 337 337 337 339 342 341 339 340 343 341 340 343 342 341 342 342 342 341 341 337 333 332 331 330 328 329 329 329 330 329 328 327 327 326 326 326 325 326 324 326 325 324 323 323
338 338 337 337 337 336 336 336 339 341 340 342 344 346 345 342 339 338 342 341 343 341 342 341 338 333 332 331 328 329 330 330 330 330 329 328 328 328 327 327 324 326 325 326 325 325 325 324 323
335 337 335 335 336 335 335 336 337 337 336 343 344 344 342 342 338 333 335 341 341 341 341 340 337 332 331 330 328 329 329 329 329 329 329 329 329 329 328 327 325 323 322 321 320 323 323 323 322
335 334 335 335 335 334 334 335 338 336 337 337 339 342 343 343 333 334 338 341 340 340 336 334 333 331 330 331 330 329 329 329 329 330 330 330 329 328 329 328 324 324 323 322 324 322 321 319 320
329 332 333 334 332 334 335 339 339 338 338 339 337 335 337 337 334 341 342 342 339 335 334 334 334 333 333 331 330 329 329 328 329 328 329 328 327 328 328 327 325 323 321 321 320 320 319 315 318
332 332 332 332 331 332 336 339 338 340 338 339 339 337 334 335 331 335 342 342 339 337 335 335 335 335 333 331 332 331 329 328 328 327 327 328 328 328 328 326 322 319 321 315 316 316 312 313 313
331 331 331 331 331 333 336 337 336 335 338 339 337 337 335 334 332 333 335 337 333 337 336 330 329 334 334 334 331 331 329 327 326 324 323 327 326 325 325 322 321 319 317 317 317 314 314 315 314
332 332 331 330 330 333 335 336 337 334 332 331 331 332 332 331 342 339 335 335 337 336 335 334 332 333 335 333 332 332 329 328 324 322 323 325 324 323 321 321 320 320 319 319 318 316 315 315 314
331 329 329 329 330 330 335 337 337 335 334 333 333 334 333 333 342 339 338 339 338 338 337 336 331 333 335 333 332 330 328 324 322 320 319 322 323 322 322 321 321 320 320 319 319 319 316 315 315
331 330 329 330 329 329 330 330 335 334 332 333 331 335 335 335 334 341 339 339 340 338 338 335 334 335 334 332 329 328 322 321 320 320 322 322 322 323 322 321 320 320 319 318 319 319 317 316 315
332 331 330 329 329 329 331 330 336 333 334 331 336 340 338 338 337 337 337 339 337 338 334 331 333 333 334 331 326 323 320 320 321 323 321 321 321 320 320 320 320 319 318 317 318 319 318 317 315
330 330 327 325 325 329 332 330 334 334 334 331 335 339 338 337 332 334 335 338 337 335 334 331 331 331 330 326 323 323 324 324 324 323 322 321 319 318 318 318 318 317 317 317 317 316 315 314 313
328 327 328 330 330 330 332 335 334 334 332 330 332 335 339 338 337 338 338 336 336 334 333 332 332 328 323 324 322 320 318 323 323 322 321 320 319 319 317 314 314 312 312 311 310 309 309 310 312
329 327 329 337 336 334 335 338 336 334 333 332 331 332 335 336 338 333 329 333 333 331 329 327 324 322 321 319 319 323 323 320 319 319 319 317 314 311 310 309 308 306 308 308 308 310 310 311 313
330 331 329 334 336 337 337 336 332 333 333 331 329 331 332 332 331 331 329 328 326 325 324 322 319 320 321 322 322 321 320 318 316 313 312 308 307 307 307 305 306 305 307 307 308 309 310 312 311
330 331 336 334 338 341 338 336 335 335 333 333 332 330 332 331 330 329 327 322 322 321 321 320 320 321 322 321 319 317 315 313 310 307 308 309 309 307 307 306 306 305 305 306 307 307 308 309 309
333 333 331 330 332 333 335 336 329 331 331 332 333 332 331 329 329 327 324 322 322 322 322 321 320 320 318 316 315 314 311 307 307 310 310 309 308 308 307 305 305 305 304 304 306 307 307 307 309
332 333 329 330 333 335 334 336 333 330 329 331 333 333 331 329 324 324 324 322 322 322 322 319 319 318 316 315 313 309 309 310 310 311 309 308 306 305 304 304 304 304 305 305 306 307 308 309 309
Wind_Speed
4 4 4 4 4 5 1 2 2 7 2 5 7 8 10 6 1 3 13 21 16 18 19 16 14 12 11 9 8 7 7 6 5 5 4 4 3 3 3 3 3 4 4 4 5 5 5 5 6
2 5 5 4 4 2 3 3 4 11 9 20 16 10 7 3 5 12 26 17 15 16 19 16 14 11 10 8 7 6 5 4 4 3 2 2 2 3 3 4 5 5 6 6 6 7 7 7 8
6 3 2 4 3 4 3 5 10 12 23 10 7 9 5 6 10 25 18 20 17 18 18 16 14 12 10 9 7 6 5 3 2 1 1 1 2 3 3 4 5 5 6 7 7 8 8 8 8
11 5 5 3 4 4 4 4 16 7 10 3 15 7 5 0 19 17 20 21 19 19 18 16 13 12 11 10 8 6 5 4 3 2 1 1 2 2 3 4 4 5 5 5 5 5 6 7 7
14 6 3 3 4 5 11 7 10 4 6 11 5 6 9 14 9 15 22 22 20 19 18 17 15 13 11 9 8 7 6 5 3 2 2 1 2 3 3 5 7 8 8 7 7 7 6 4 4
3 1 1 1 6 10 8 22 7 10 11 11 9 11 8 11 15 19 21 19 16 19 18 17 14 12 11 9 9 8 6 5 3 3 2 2 3 4 5 6 9 10 10 8 7 6 6 5 4
7 3 4 3 6 7 7 13 10 11 13 6 17 5 5 14 17 22 23 18 16 15 13 16 13 12 11 10 10 8 7 5 4 2 2 2 2 4 6 6 9 11 12 9 8 7 5 3 1
6 6 4 5 5 6 7 8 17 20 7 16 13 8 7 22 23 25 21 21 18 16 14 15 16 14 12 12 10 8 5 3 2 0 1 2 1 1 5 5 7 10 12 9 14 9 6 3 2
5 1 3 6 3 5 10 6 12 11 18 9 13 8 6 22 26 26 24 25 22 22 20 19 19 17 16 13 9 7 5 3 2 2 1 2 2 4 6 5 7 7 10 11 12 9 7 4 4
8 2 3 4 13 3 6 15 12 8 13 3 9 9 10 26 30 33 34 34 32 28 25 21 21 20 21 14 10 5 5 4 2 1 1 1 3 4 2 4 8 5 9 10 10 9 9 8 9
8 6 7 8 21 19 16 12 17 12 3 16 20 17 20 29 32 32 32 33 30 25 26 25 21 21 20 16 11 7 7 5 5 4 4 2 2 2 2 7 10 6 9 12 12 11 10 7 10
2 11 10 14 17 12 2 18 5 11 12 21 23 18 24 29 33 32 31 32 33 32 30 29 24 22 18 16 12 7 7 7 8 9 5 5 4 3 5 9 11 11 12 11 16 17 14 14 13
4 2 5 9 18 17 13 4 9 9 13 20 22 21 25 25 29 27 27 27 29 37 31 31 28 23 19 18 13 9 9 11 9 11 8 9 9 8 12 13 13 15 12 15 16 13 11 12 13
5 4 7 7 10 7 4 6 3 13 7 8 16 13 10 10 20 33 29 30 35 35 37 30 29 26 20 17 13 11 9 8 8 9 10 13 13 14 16 13 13 12 17 17 15 13 16 17 18
8 5 6 5 8 6 2 1 6 21 13 14 15 18 15 8 9 44 43 39 29 34 35 27 30 27 26 20 20 19 18 14 12 13 14 14 15 18 20 15 13 9 9 14 18 19 18 20 20
3 4 3 4 6 4 3 6 7 15 25 23 15 13 13 29 11 15 18 26 26 25 32 27 27 28 29 23 24 23 19 15 16 13 18 18 17 18 19 16 12 13 13 17 15 17 21 25 24
6 3 4 6 20 2 2 3 9 6 12 9 9 19 18 5 14 12 22 24 20 26 27 26 21 21 20 24 21 19 16 16 15 13 15 15 17 17 19 18 15 15 16 18 20 20 21 25 25
6 5 5 7 11 3 9 2 6 1 2 8 20 22 15 4 14 7 22 19 12 22 27 17 18 18 22 21 17 13 13 14 11 12 15 15 22 20 17 17 17 17 16 15 17 20 13 18 23
5 4 5 12 11 1 7 4 4 6 6 10 16 16 5 2 6 18 16 25 20 25 26 27 11 26 23 18 16 13 11 13 14 12 22 20 25 24 19 20 19 18 19 17 18 18 15 16 16
11 9 8 7 6 5 9 4 6 7 6 9 15 11 3 4 8 12 14 19 24 31 30 23 9 21 23 19 18 13 12 17 25 24 14 18 20 19 19 19 19 22 21 19 22 21 19 18 17
9 7 5 7 3 5 7 3 3 7 14 15 15 11 3 11 18 20 16 18 24 22 16 12 7 19 20 19 13 10 11 2 12 11 17 23 18 20 19 19 21 22 21 24 24 25 22 18 20
4 11 10 8 3 4 3 3 5 4 7 6 13 3 9 11 12 11 12 12 15 13 10 7 11 11 13 10 8 9 13 5 6 9 7 11 10 13 18 20 21 21 21 25 23 25 23 21 23
9 10 14 8 4 3 5 5 6 5 6 7 13 12 14 12 11 12 12 7 7 13 10 5 10 11 12 9 2 5 2 4 7 11 12 15 16 19 22 22 17 19 18 23 21 22 24 26 25
13 4 6 3 4 2 3 4 4 1 4 3 7 12 14 15 14 9 8 9 12 12 6 4 6 6 6 7 2 2 6 8 13 17 21 20 20 26 27 29 29 24 22 23 25 26 26 27 26
3 4 3 4 4 3 3 2 6 6 7 2 9 9 10 11 10 11 9 7 7 5 3 3 1 3 7 2 3 5 6 7 9 18 19 21 26 27 28 25 25 28 27 28 30 29 27 24 24
1 5 4 4 2 4 2 4 5 4 12 17 17 15 16 16 14 15 10 8 7 6 7 10 10 7 2 1 4 2 4 11 14 15 16 18 21 23 25 33 36 35 31 28 25 23 21 20 21
2 4 5 5 2 2 3 4 7 3 7 19 18 16 22 21 18 15 12 11 10 10 9 6 5 5 3 4 7 10 6 8 11 15 20 22 22 25 29 36 30 29 30 24 24 21 21 18 16
4 8 4 1 5 4 2 2 5 4 6 8 8 17 20 17 14 13 12 11 11 11 10 9 6 6 8 6 4 7 11 16 19 16 20 20 20 26 31 26 27 29 26 24 23 22 23 22 21
1 2 5 4 2 5 4 5 7 7 4 9 15 20 21 20 15 13 13 10 8 10 12 10 8 8 4 5 9 14 18 17 14 19 17 22 30 25 28 26 26 24 26 22 20 18 19 18 15
3 3 5 4 4 2 3 5 5 8 2 19 21 21 24 21 15 14 13 10 12 14 16 13 6 5 6 10 14 14 9 14 16 16 19 28 27 23 24 24 24 21 20 18 15 15 14 12 15
Wind_Direction
28 36 8 32 59 63 237 278 177 292 41 65 96 118 110 48 78 195 147 161 180 185 178 175 170 165 163 159 150 150 153 156 155 149 156 158 167 185 207 225 237 253 258 258 261 262 254 251 251
319 327 21 54 86 87 250 249 217 253 111 107 83 98 60 92 127 152 158 177 181 185 180 174 167 166 164 164 165 164 168 168 165 167 172 199 220 240 247 255 266 271 271 273 271 269 263 260 254
29 45 80 92 129 184 168 216 234 255 145 156 116 77 106 145 171 159 172 169 178 178 177 174 173 174 174 174 174 177 178 177 182 194 203 230 249 254 264 275 279 286 289 285 282 278 275 263 255
35 19 52 68 203 258 225 227 215 246 117 170 123 85 96 249 162 178 171 174 180 184 181 181 179 177 178 179 181 179 171 155 137 120 95 75 46 19 7 2 359 347 331 317 310 297 282 277 272
17 16 31 351 287 276 239 262 231 175 113 142 156 158 139 160 185 185 180 182 193 188 186 188 182 181 180 178 179 170 159 149 142 123 101 78 56 55 45 52 23 2 346 337 336 332 329 325 299
92 95 84 316 273 254 255 239 244 131 138 148 112 133 164 196 205 192 187 189 197 192 187 187 186 186 184 180 175 167 160 147 128 123 124 123 111 82 69 55 26 15 4 350 340 332 324 322 332
136 147 234 241 265 274 229 214 195 146 155 166 145 122 185 190 194 185 182 192 185 184 193 196 197 192 188 183 174 165 158 151 148 139 170 170 130 95 75 36 33 26 15 15 15 3 347 333 95
205 165 311 214 256 219 139 125 151 139 174 157 178 167 192 195 183 180 183 193 189 193 188 185 191 191 187 179 169 167 161 151 108 318 188 210 245 72 39 34 29 26 14 20 22 16 27 32 87
232 357 294 319 13 288 145 133 160 164 151 172 200 204 232 182 174 181 186 195 202 200 199 197 195 185 177 171 172 172 173 155 83 154 306 244 320 339 359 14 11 4 10 4 4 7 15 356 324
172 130 244 56 269 193 244 165 161 155 142 130 171 196 195 174 177 183 189 197 205 205 203 206 201 188 177 183 180 185 190 189 145 278 216 184 312 337 13 343 346 326 346 340 334 350 340 331 330
173 191 181 258 255 277 250 210 191 165 227 191 198 186 185 179 183 192 196 197 208 214 207 205 202 193 191 191 188 201 212 211 220 225 225 218 253 311 256 309 319 316 312 324 319 322 313 291 310
154 225 221 254 266 284 196 214 107 176 207 220 226 221 190 191 192 197 203 205 208 219 219 208 203 203 200 196 195 212 212 228 230 232 225 231 237 268 298 290 291 288 290 302 303 297 292 285 300
227 282 318 292 246 294 283 155 163 177 188 203 209 199 194 196 204 209 215 215 216 217 225 217 204 204 206 201 195 205 211 222 237 239 233 238 240 274 280 274 272 282 287 289 289 307 286 279 290
223 208 216 277 209 271 263 141 112 208 23 96 167 156 138 79 13 337 261 224 221 221 222 224 210 212 203 206 202 207 212 208 239 260 285 281 261 276 285 262 289 269 283 275 285 292 286 282 289
249 259 308 327 304 297 263 316 87 78 82 90 135 155 151 190 357 303 285 255 230 233 223 218 209 202 198 194 200 210 224 234 248 263 273 278 276 277 284 272 282 273 259 271 285 280 287 290 294
20 57 302 256 290 287 137 286 34 147 149 124 122 148 207 226 298 316 268 245 257 227 200 192 194 199 205 207 223 228 234 239 245 250 251 257 264 270 273 275 268 276 277 292 287 290 290 292 290
14 308 298 329 317 261 36 359 339 115 105 118 208 218 231 258 329 296 209 240 216 190 193 188 201 212 229 220 222 236 246 249 242 272 275 270 269 273 266 265 271 284 299 293 291 294 300 302 291
288 314 278 321 307 291 77 3 357 37 194 256 265 289 351 333 339 282 232 245 235 205 205 206 243 240 220 221 237 242 235 231 254 262 268 286 278 278 268 272 287 294 288 306 305 294 293 324 309
197 257 280 285 285 111 105 92 312 323 283 276 289 297 56 236 291 241 258 240 207 204 200 154 230 231 229 231 233 233 234 239 266 276 285 288 285 282 280 280 280 280 288 303 298 282 290 311 314
324 312 293 284 311 112 125 150 229 258 267 271 289 288 168 281 100 146 135 169 197 198 205 210 247 227 233 224 222 239 250 303 256 285 273 299 278 281 285 278 288 294 289 285 297 287 284 298 308
276 222 245 237 359 60 145 152 244 244 254 259 255 282 255 139 132 147 173 176 190 203 222 243 245 220 226 213 249 276 287 342 264 258 279 301 273 277 275 283 280 281 274 284 291 282 275 288 298
281 255 265 281 36 262 155 255 317 337 313 259 10 349 78 95 142 154 183 169 195 215 233 233 218 214 233 230 248 294 324 229 259 301 319 297 272 242 270 278 281 271 271 280 280 279 278 284 295
237 268 267 275 218 116 352 82 271 347 337 343 38 57 70 88 107 135 175 201 179 202 195 228 221 238 258 238 262 306 21 292 293 274 270 270 278 285 290 297 291 300 296 285 281 271 273 283 290
267 254 335 48 92 17 310 126 266 281 268 301 61 65 83 108 122 101 111 117 164 181 212 209 283 287 306 182 207 328 324 303 282 283 286 293 295 293 298 300 302 301 295 289 285 289 284 285 290
45 80 338 356 22 232 261 32 234 257 268 347 138 91 95 112 110 104 107 144 149 176 276 285 37 78 130 172 327 317 313 303 296 299 303 301 305 305 308 309 311 308 302 297 294 293 291 288 285
31 130 160 219 177 256 108 230 248 229 319 99 114 119 118 111 115 106 105 103 84 85 94 94 98 77 56 316 293 320 284 299 295 296 308 315 317 315 312 310 305 302 299 300 295 290 291 287 287
195 77 133 98 331 247 178 260 302 43 39 112 123 134 119 118 118 115 109 100 106 114 113 110 102 101 151 208 240 260 278 304 316 321 319 318 329 324 319 318 309 300 291 291 290 292 305 291 288
161 146 83 337 176 230 244 258 230 202 158 131 143 143 133 132 133 123 131 125 124 130 134 136 157 185 192 209 247 298 322 322 326 342 346 333 323 315 316 314 311 312 302 293 287 287 285 292 291
39 102 62 127 146 176 178 251 207 216 198 174 175 150 150 152 147 159 157 137 140 147 154 160 149 157 195 284 315 328 325 336 355 343 325 327 324 323 321 316 313 310 303 292 288 289 283 279 284
283 154 133 139 233 253 172 264 195 191 211 171 165 164 163 158 155 168 167 167 166 173 168 171 196 256 288 316 323 323 358 346 328 324 329 330 327 323 326 324 318 319 315 293 280 283 291 283 287